Regional Weather Roundup
Issued by NWS

Home | Current Version | Previous Version | Graphics & Text | Print | Product List | Glossary On
Versions: 1 2 3 4 5 6 7 8 9 10 11 12 13 14 15 16 17 18 19 20 21 22 23 24 25 26 27 28 29 30 31 32 33 34 35 36 37 38 39 40 41 42 43 44 45 46 47 48 49 50
000
ASUS45 KABQ 290410
RWRNM
WEATHER ROUNDUP FOR NEW MEXICO
NATIONAL WEATHER SERVICE ALBUQUERQUE NM
1000 PM MDT SAT MAR 28 2015

NOTE: "FAIR" MEANS FEW OR NO CLOUDS BELOW 12,000 FEET AGL WITH NO
       SIGNIFICANT WEATHER OR OBSTRUCTIONS TO VISION.

      THIS PRODUCT IS RELEASED AS TWO VERSIONS.  ONE VERSION NEAR
      THE TOP OF THE HOUR CONTAINING PRELIMINARY DATA FROM ALBUQUERQUE
      AND OTHER STATIONS.  A FINAL VERSION WITH ADDITIONAL DATA IS
      ISSUED ABOUT 10 MINUTES AFTER THE HOUR.

NMZ501-503-504-510>518-290500-
NORTHWEST PLATEAU/NORTHCENTRAL MOUNTAINS

CITY           SKY/WX    TMP DP  RH WIND       PRES   REMARKS
FARMINGTON     CLEAR     55  15  20 NE5       30.13S
LOS ALAMOS     CLEAR     58  14  17 SW7       30.24R
SANTA FE       CLEAR     53  13  20 N9        30.16R
TAOS           CLEAR     52  16  24 W13       30.21S
ANGEL FIRE     FAIR      47  18  31 NW5       30.26S

$$
NMZ402-403-502-505>509-290500-
WESTCENTRAL MOUNTAINS/SOUTHWEST MOUNTAINS

CITY           SKY/WX    TMP DP  RH WIND       PRES   REMARKS
GALLUP         CLEAR     47   9  21 CALM      30.24R
GRANTS         CLEAR     53   6  15 NW6       30.24S
SILVER CITY    CLEAR     54   7  15 N14       30.23R

$$
NMZ407-409-411-412-290500-
SOUTHERN DESERTS

CITY           SKY/WX    TMP DP  RH WIND       PRES   REMARKS
LORDSBURG      FAIR      59  14  17 W8        30.15R
DEMING         CLEAR     62   7  11 NW8       30.13R
LAS CRUCES     CLEAR     65   6   9 W15       30.12R
HOLLOMAN AFB   PTCLDY    63  18  17 S8        30.05S
ALAMOGORDO     CLEAR     64  14  14 SE7       30.07S
T OR C         CLEAR     70   5   8 VRB7      30.11R

$$
NMZ519>523-290500-
CENTRAL VALLEYS/CENTRAL HIGHLANDS

CITY           SKY/WX    TMP DP  RH WIND       PRES   REMARKS
ALBUQUERQUE    CLEAR     66   9  10 W8        30.13R
DOUBLE EAGLE   CLEAR     52  10  19 W13       30.17R
MORIARTY ARPT  FAIR      48  13  24 CALM      30.18R
CLINES CORNERS CLEAR     52  15  23 W12       30.19R
BELEN          FAIR      56   4  12 NW8       30.12S
SOCORRO        FAIR      73   5   7 NW16G22   30.10R

$$
NMZ524>526-539-540-290500-
SOUTHCENTRAL MOUNTAINS

CITY           SKY/WX    TMP DP  RH WIND       PRES   REMARKS
RUIDOSO        CLEAR     54  14  20 SW9       30.25R

$$
NMZ527>531-290500-
NORTHEAST HIGHLANDS/NORTHEAST PLAINS

CITY           SKY/WX    TMP DP  RH WIND       PRES   REMARKS
LAS VEGAS      CLEAR     54  18  24 NW9       30.17R
RATON          CLEAR     63  18  17 W17       30.08S
CLAYTON        CLEAR     59  23  25 SW13      30.01S

$$
NMZ532>537-290500-
EASTCENTRAL PLAINS

CITY           SKY/WX    TMP DP  RH WIND       PRES   REMARKS
TUCUMCARI      CLEAR     56  26  31 S8        29.98F
CANNON AFB     CLEAR     61  27  27 SE6       30.05R
CLOVIS AIRPORT CLEAR     59  27  29 S5        30.04S

$$
NMZ028-029-538-290500-
SOUTHEAST PLAINS

CITY           SKY/WX    TMP DP  RH WIND       PRES   REMARKS
ROSWELL        CLEAR     60  26  27 W9        30.02S
ARTESIA        CLEAR     59  25  27 SW12G18   30.03S
CARLSBAD       CLEAR     61  37  41 W14       30.01R
HOBBS          CLEAR     57  25  28 CALM      30.05R


$$



USA.gov is the U.S. government's official web portal to all federal, state and local government web resources and services.